Time,TemperatureF,DewpointF,PressureIn,WindDirection,WindDirectionDegrees,WindSpeedMPH,WindSpeedGustMPH,Humidity,HourlyPrecipIn,Conditions,Clouds,dailyrainin,SoftwareType,DateUTC
2013-05-02 00:01:00,52.5,19.5,29.71,SE,130,0.0,0.0,27,0.00,,,0.00,VWS V14.01,2013-05-02 04:01:00,
2013-05-02 00:06:00,52.3,20.2,29.71,SE,130,0.0,0.0,28,0.00,,,0.00,VWS V14.01,2013-05-02 04:06:00,
2013-05-02 00:11:00,52.3,20.2,29.71,SE,130,0.0,0.0,28,0.00,,,0.00,VWS V14.01,2013-05-02 04:11:00,
2013-05-02 00:16:00,52.3,20.2,29.71,SE,130,0.0,0.0,28,0.00,,,0.00,VWS V14.01,2013-05-02 04:16:00,
2013-05-02 00:21:00,52.2,20.1,29.71,SE,130,0.0,0.0,28,0.00,,,0.00,VWS V14.01,2013-05-02 04:21:00,
2013-05-02 00:26:00,52.0,20.7,29.71,SE,130,0.0,0.0,29,0.00,,,0.00,VWS V14.01,2013-05-02 04:26:00,
2013-05-02 00:31:00,52.0,20.7,29.71,SE,130,0.0,0.0,29,0.00,,,0.00,VWS V14.01,2013-05-02 04:31:00,
2013-05-02 00:36:00,52.2,20.9,29.71,SE,130,0.0,0.0,29,0.00,,,0.00,VWS V14.01,2013-05-02 04:36:00,
2013-05-02 00:41:00,52.2,21.7,29.71,SE,130,0.0,0.0,30,0.00,,,0.00,VWS V14.01,2013-05-02 04:41:00,
2013-05-02 00:46:00,52.2,21.7,29.71,SE,130,0.0,0.0,30,0.00,,,0.00,VWS V14.01,2013-05-02 04:46:00,
2013-05-02 00:51:00,52.0,22.3,29.71,SE,130,0.0,0.0,31,0.00,,,0.00,VWS V14.01,2013-05-02 04:51:00,
2013-05-02 00:56:00,51.6,22.0,29.71,SE,130,0.0,0.0,31,0.00,,,0.00,VWS V14.01,2013-05-02 04:56:00,
2013-05-02 01:01:00,51.1,22.3,29.71,SE,130,0.0,0.0,32,0.00,,,0.00,VWS V14.01,2013-05-02 05:01:00,
2013-05-02 01:06:00,51.1,23.0,29.71,SE,130,0.0,0.0,33,0.00,,,0.00,VWS V14.01,2013-05-02 05:06:00,
2013-05-02 01:11:00,51.1,23.7,29.71,SE,130,0.0,0.0,34,0.00,,,0.00,VWS V14.01,2013-05-02 05:11:00,
2013-05-02 01:16:00,51.1,23.7,29.71,SE,130,0.0,0.0,34,0.00,,,0.00,VWS V14.01,2013-05-02 05:16:00,
2013-05-02 01:21:00,51.1,24.4,29.71,SE,130,0.0,0.0,35,0.00,,,0.00,VWS V14.01,2013-05-02 05:21:00,
2013-05-02 01:26:00,50.9,24.2,29.71,SE,130,0.0,0.0,35,0.00,,,0.00,VWS V14.01,2013-05-02 05:26:00,
2013-05-02 01:31:00,50.4,24.4,29.71,SE,130,0.0,0.0,36,0.00,,,0.00,VWS V14.01,2013-05-02 05:31:00,
2013-05-02 01:36:00,50.2,24.3,29.71,SE,130,0.0,0.0,36,0.00,,,0.00,VWS V14.01,2013-05-02 05:36:00,
2013-05-02 01:41:00,49.6,24.5,29.71,SE,130,0.0,0.0,37,0.00,,,0.00,VWS V14.01,2013-05-02 05:41:00,
2013-05-02 01:46:00,49.5,24.3,29.71,SE,130,0.0,0.0,37,0.00,,,0.00,VWS V14.01,2013-05-02 05:46:00,
2013-05-02 01:51:00,49.5,24.3,29.71,SE,130,0.0,0.0,37,0.00,,,0.00,VWS V14.01,2013-05-02 05:51:00,
2013-05-02 01:56:00,49.6,24.5,29.71,SE,130,0.0,0.0,37,0.00,,,0.00,VWS V14.01,2013-05-02 05:56:00,
2013-05-02 02:01:00,49.6,24.5,29.71,SE,130,0.0,0.0,37,0.00,,,0.00,VWS V14.01,2013-05-02 06:01:00,
2013-05-02 02:06:00,49.5,24.3,29.71,SE,130,0.0,0.0,37,0.00,,,0.00,VWS V14.01,2013-05-02 06:06:00,
2013-05-02 02:11:00,49.1,24.6,29.71,SE,130,0.0,0.0,38,0.00,,,0.00,VWS V14.01,2013-05-02 06:11:00,
2013-05-02 02:16:00,48.7,24.3,29.71,SE,130,0.0,0.0,38,0.00,,,0.00,VWS V14.01,2013-05-02 06:16:00,
2013-05-02 02:21:00,48.6,24.1,29.71,SE,130,0.0,0.0,38,0.00,,,0.00,VWS V14.01,2013-05-02 06:21:00,
2013-05-02 02:26:00,48.4,24.0,29.71,SE,130,0.0,0.0,38,0.00,,,0.00,VWS V14.01,2013-05-02 06:26:00,
2013-05-02 02:32:00,48.4,24.0,29.71,SE,130,0.0,0.0,38,0.00,,,0.00,VWS V14.01,2013-05-02 06:32:00,
2013-05-02 02:37:00,48.2,24.4,29.71,SE,130,0.0,0.0,39,0.00,,,0.00,VWS V14.01,2013-05-02 06:37:00,
2013-05-02 02:42:00,48.0,24.3,29.71,SE,130,0.0,0.0,39,0.00,,,0.00,VWS V14.01,2013-05-02 06:42:00,
2013-05-02 02:47:00,47.8,24.1,29.71,SE,130,0.0,0.0,39,0.00,,,0.00,VWS V14.01,2013-05-02 06:47:00,
2013-05-02 02:52:00,47.5,24.4,29.68,SE,130,0.0,0.0,40,0.00,,,0.00,VWS V14.01,2013-05-02 06:52:00,
2013-05-02 02:57:00,47.5,24.4,29.68,SE,130,0.0,0.0,40,0.00,,,0.00,VWS V14.01,2013-05-02 06:57:00,
2013-05-02 03:02:00,47.3,24.2,29.68,SE,130,0.0,0.0,40,0.00,,,0.00,VWS V14.01,2013-05-02 07:02:00,
2013-05-02 03:07:00,47.1,24.1,29.68,SE,130,0.0,0.0,40,0.00,,,0.00,VWS V14.01,2013-05-02 07:07:00,
2013-05-02 03:12:00,46.9,23.9,29.68,SE,130,0.0,0.0,40,0.00,,,0.00,VWS V14.01,2013-05-02 07:12:00,
2013-05-02 03:17:00,46.8,23.7,29.68,SE,130,0.0,0.0,40,0.00,,,0.00,VWS V14.01,2013-05-02 07:17:00,
2013-05-02 03:22:00,46.4,24.0,29.68,SE,130,0.0,0.0,41,0.00,,,0.00,VWS V14.01,2013-05-02 07:22:00,
2013-05-02 03:27:00,46.4,24.0,29.68,SE,130,0.0,0.0,41,0.00,,,0.00,VWS V14.01,2013-05-02 07:27:00,
2013-05-02 03:32:00,46.2,24.4,29.68,SE,130,0.0,0.0,42,0.00,,,0.00,VWS V14.01,2013-05-02 07:32:00,
2013-05-02 03:37:00,46.0,24.2,29.68,SE,130,0.0,0.0,42,0.00,,,0.00,VWS V14.01,2013-05-02 07:37:00,
2013-05-02 03:43:00,45.9,24.1,29.68,SE,130,0.0,0.0,42,0.00,,,0.00,VWS V14.01,2013-05-02 07:43:00,
2013-05-02 03:48:00,45.7,23.9,29.68,SE,130,0.0,0.0,42,0.00,,,0.00,VWS V14.01,2013-05-02 07:48:00,
2013-05-02 03:53:00,45.3,24.2,29.68,SE,130,0.0,0.0,43,0.00,,,0.00,VWS V14.01,2013-05-02 07:53:00,
2013-05-02 03:58:00,45.5,24.9,29.68,North,2,0.0,0.0,44,0.00,,,0.00,VWS V14.01,2013-05-02 07:58:00,
2013-05-02 04:03:00,45.7,25.0,29.68,North,2,0.0,0.0,44,0.00,,,0.00,VWS V14.01,2013-05-02 08:03:00,
2013-05-02 04:08:00,45.3,24.2,29.68,North,2,0.0,0.0,43,0.00,,,0.00,VWS V14.01,2013-05-02 08:08:00,
2013-05-02 04:13:00,45.1,24.5,29.68,North,2,0.0,0.0,44,0.00,,,0.00,VWS V14.01,2013-05-02 08:13:00,
2013-05-02 04:18:00,45.3,24.7,29.71,North,2,0.0,0.0,44,0.00,,,0.00,VWS V14.01,2013-05-02 08:18:00,
2013-05-02 04:23:00,45.3,24.7,29.71,North,2,0.0,0.0,44,0.00,,,0.00,VWS V14.01,2013-05-02 08:23:00,
2013-05-02 04:28:00,44.8,24.2,29.71,North,2,0.0,0.0,44,0.00,,,0.00,VWS V14.01,2013-05-02 08:28:00,
2013-05-02 04:33:00,44.6,24.6,29.68,North,2,0.0,0.0,45,0.00,,,0.00,VWS V14.01,2013-05-02 08:33:00,
2013-05-02 04:38:00,44.6,24.6,29.68,North,2,0.0,0.0,45,0.00,,,0.00,VWS V14.01,2013-05-02 08:38:00,
2013-05-02 04:43:00,44.6,24.6,29.68,North,2,0.0,0.0,45,0.00,,,0.00,VWS V14.01,2013-05-02 08:43:00,
2013-05-02 04:48:00,44.6,24.6,29.71,North,2,0.0,0.0,45,0.00,,,0.00,VWS V14.01,2013-05-02 08:48:00,
2013-05-02 04:54:00,44.4,25.0,29.71,North,2,0.0,0.0,46,0.00,,,0.00,VWS V14.01,2013-05-02 08:54:00,
2013-05-02 04:58:00,44.2,24.3,29.71,North,2,0.0,0.0,45,0.00,,,0.00,VWS V14.01,2013-05-02 08:58:00,
2013-05-02 05:04:00,43.9,23.9,29.68,North,2,0.0,0.0,45,0.00,,,0.00,VWS V14.01,2013-05-02 09:04:00,
2013-05-02 05:09:00,43.7,23.8,29.68,North,2,0.0,0.0,45,0.00,,,0.00,VWS V14.01,2013-05-02 09:09:00,
2013-05-02 05:14:00,43.2,23.8,29.68,North,2,0.0,0.0,46,0.00,,,0.00,VWS V14.01,2013-05-02 09:14:00,
2013-05-02 05:19:00,43.2,24.3,29.68,North,2,0.0,0.0,47,0.00,,,0.00,VWS V14.01,2013-05-02 09:19:00,
2013-05-02 05:24:00,43.3,24.5,29.68,North,2,0.0,0.0,47,0.00,,,0.00,VWS V14.01,2013-05-02 09:24:00,
2013-05-02 05:29:00,43.0,24.1,29.68,North,2,0.0,0.0,47,0.00,,,0.00,VWS V14.01,2013-05-02 09:29:00,
2013-05-02 05:34:00,42.8,24.0,29.68,North,2,0.0,0.0,47,0.00,,,0.00,VWS V14.01,2013-05-02 09:34:00,
2013-05-02 05:39:00,42.8,24.5,29.68,North,2,0.0,0.0,48,0.00,,,0.00,VWS V14.01,2013-05-02 09:39:00,
2013-05-02 05:44:00,43.0,24.6,29.68,North,2,0.0,0.0,48,0.00,,,0.00,VWS V14.01,2013-05-02 09:44:00,
2013-05-02 05:49:00,43.0,24.6,29.68,North,2,0.0,0.0,48,0.00,,,0.00,VWS V14.01,2013-05-02 09:49:00,
2013-05-02 05:54:00,43.0,24.6,29.68,North,2,0.0,0.0,48,0.00,,,0.00,VWS V14.01,2013-05-02 09:54:00,
2013-05-02 05:59:00,43.0,24.6,29.68,North,2,0.0,0.0,48,0.00,,,0.00,VWS V14.01,2013-05-02 09:59:00,
2013-05-02 06:04:00,43.0,24.6,29.68,WNW,303,0.0,0.0,48,0.00,,,0.00,VWS V14.01,2013-05-02 10:04:00,
2013-05-02 06:09:00,42.8,24.5,29.68,WNW,303,0.0,0.0,48,0.00,,,0.00,VWS V14.01,2013-05-02 10:09:00,
2013-05-02 06:14:00,42.4,24.1,29.68,WNW,303,0.0,0.0,48,0.00,,,0.00,VWS V14.01,2013-05-02 10:14:00,
2013-05-02 06:19:00,42.4,24.6,29.71,WNW,303,0.0,0.0,49,0.00,,,0.00,VWS V14.01,2013-05-02 10:19:00,
2013-05-02 06:24:00,42.8,24.5,29.71,WNW,303,0.0,0.0,48,0.00,,,0.00,VWS V14.01,2013-05-02 10:24:00,
2013-05-02 06:29:00,42.8,24.5,29.71,WNW,303,0.0,0.0,48,0.00,,,0.00,VWS V14.01,2013-05-02 10:29:00,
2013-05-02 06:34:00,42.8,24.5,29.71,WNW,303,0.0,0.0,48,0.00,,,0.00,VWS V14.01,2013-05-02 10:34:00,
2013-05-02 06:39:00,42.6,24.8,29.71,WNW,303,0.0,0.0,49,0.00,,,0.00,VWS V14.01,2013-05-02 10:39:00,
2013-05-02 06:44:00,42.6,24.8,29.71,WNW,303,0.0,0.0,49,0.00,,,0.00,VWS V14.01,2013-05-02 10:44:00,
2013-05-02 06:49:00,42.8,25.0,29.71,WNW,303,0.0,0.0,49,0.00,,,0.00,VWS V14.01,2013-05-02 10:49:00,
2013-05-02 06:54:00,42.8,24.5,29.71,WNW,303,0.0,0.0,48,0.00,,,0.00,VWS V14.01,2013-05-02 10:54:00,
2013-05-02 06:59:00,43.0,25.1,29.71,WNW,303,0.0,0.0,49,0.00,,,0.00,VWS V14.01,2013-05-02 10:59:00,
2013-05-02 07:05:00,43.0,25.1,29.71,WNW,303,0.0,0.0,49,0.00,,,0.00,VWS V14.01,2013-05-02 11:05:00,
2013-05-02 07:10:00,43.5,25.6,29.71,WNW,303,0.0,0.0,49,0.00,,,0.00,VWS V14.01,2013-05-02 11:10:00,
2013-05-02 07:15:00,43.7,26.3,29.71,WNW,303,0.0,0.0,50,0.00,,,0.00,VWS V14.01,2013-05-02 11:15:00,
2013-05-02 07:20:00,44.2,26.8,29.71,WNW,303,0.0,0.0,50,0.00,,,0.00,VWS V14.01,2013-05-02 11:20:00,
2013-05-02 07:25:00,44.6,27.1,29.71,WNW,303,0.0,0.0,50,0.00,,,0.00,VWS V14.01,2013-05-02 11:25:00,
2013-05-02 07:30:00,45.1,27.6,29.71,WNW,303,0.0,0.0,50,0.00,,,0.00,VWS V14.01,2013-05-02 11:30:00,
2013-05-02 07:35:00,46.0,28.5,29.71,WNW,303,0.0,0.0,50,0.00,,,0.00,VWS V14.01,2013-05-02 11:35:00,
2013-05-02 07:40:00,46.8,29.1,29.71,WNW,303,0.0,0.0,50,0.00,,,0.00,VWS V14.01,2013-05-02 11:40:00,
2013-05-02 07:45:00,47.5,30.3,29.71,WNW,303,0.0,0.0,51,0.00,,,0.00,VWS V14.01,2013-05-02 11:45:00,
2013-05-02 07:50:00,48.2,30.9,29.71,WNW,303,0.0,0.0,51,0.00,,,0.00,VWS V14.01,2013-05-02 11:50:00,
2013-05-02 07:55:00,48.6,31.3,29.71,WNW,303,0.0,0.0,51,0.00,,,0.00,VWS V14.01,2013-05-02 11:55:00,
2013-05-02 08:00:00,48.9,31.6,29.71,WNW,303,0.0,0.0,51,0.00,,,0.00,VWS V14.01,2013-05-02 12:00:00,
2013-05-02 08:05:00,49.3,32.4,29.71,WNW,299,0.0,0.0,52,0.00,,,0.00,VWS V14.01,2013-05-02 12:05:00,
2013-05-02 08:10:00,49.6,32.8,29.71,WNW,282,0.0,0.0,52,0.00,,,0.00,VWS V14.01,2013-05-02 12:10:00,
2013-05-02 08:15:00,50.0,33.1,29.71,WNW,283,0.0,0.0,52,0.00,,,0.00,VWS V14.01,2013-05-02 12:15:00,
2013-05-02 08:20:00,50.5,33.6,29.71,SSW,210,0.0,0.0,52,0.00,,,0.00,VWS V14.01,2013-05-02 12:20:00,
2013-05-02 08:25:00,50.9,33.9,29.71,SW,232,0.0,0.0,52,0.00,,,0.00,VWS V14.01,2013-05-02 12:25:00,
2013-05-02 08:31:00,51.4,34.4,29.71,SW,230,0.0,0.0,52,0.00,,,0.00,VWS V14.01,2013-05-02 12:31:00,
2013-05-02 08:36:00,52.0,34.4,29.71,SW,232,0.0,0.0,51,0.00,,,0.00,VWS V14.01,2013-05-02 12:36:00,
2013-05-02 08:41:00,52.5,34.9,29.71,WSW,256,0.0,0.0,51,0.00,,,0.00,VWS V14.01,2013-05-02 12:41:00,
2013-05-02 08:46:00,53.1,34.9,29.71,West,276,0.0,0.0,50,0.00,,,0.00,VWS V14.01,2013-05-02 12:46:00,
2013-05-02 08:51:00,53.6,33.9,29.71,SW,215,0.0,0.0,47,0.00,,,0.00,VWS V14.01,2013-05-02 12:51:00,
2013-05-02 08:56:00,54.0,33.7,29.71,WSW,250,0.0,0.0,46,0.00,,,0.00,VWS V14.01,2013-05-02 12:56:00,
2013-05-02 09:01:00,54.5,34.2,29.71,NNW,342,2.2,2.7,46,0.00,,,0.00,VWS V14.01,2013-05-02 13:01:00,
2013-05-02 09:06:00,54.9,33.4,29.71,West,259,0.0,0.0,44,0.00,,,0.00,VWS V14.01,2013-05-02 13:06:00,
2013-05-02 09:12:00,55.2,32.5,29.71,WSW,255,0.0,3.1,42,0.00,,,0.00,VWS V14.01,2013-05-02 13:12:00,
2013-05-02 09:17:00,55.9,32.6,29.71,West,263,0.0,2.2,41,0.00,,,0.00,VWS V14.01,2013-05-02 13:17:00,
2013-05-02 09:22:00,56.7,32.6,29.71,ENE,61,0.0,2.7,40,0.00,,,0.00,VWS V14.01,2013-05-02 13:22:00,
2013-05-02 09:27:00,56.7,30.7,29.71,West,266,0.0,0.0,37,0.00,,,0.00,VWS V14.01,2013-05-02 13:27:00,
2013-05-02 09:32:00,57.0,31.0,29.71,West,277,0.0,0.0,37,0.00,,,0.00,VWS V14.01,2013-05-02 13:32:00,
2013-05-02 09:37:00,57.7,31.7,29.71,ESE,107,0.0,3.1,37,0.00,,,0.00,VWS V14.01,2013-05-02 13:37:00,
2013-05-02 09:42:00,58.1,32.0,29.71,East,95,0.0,0.0,37,0.00,,,0.00,VWS V14.01,2013-05-02 13:42:00,
2013-05-02 09:47:00,57.9,30.5,29.71,WNW,293,0.0,3.1,35,0.00,,,0.00,VWS V14.01,2013-05-02 13:47:00,
2013-05-02 09:52:00,58.3,30.8,29.71,NE,38,0.0,0.0,35,0.00,,,0.00,VWS V14.01,2013-05-02 13:52:00,
2013-05-02 09:57:00,58.6,31.1,29.71,West,265,0.0,0.0,35,0.00,,,0.00,VWS V14.01,2013-05-02 13:57:00,
2013-05-02 10:02:00,59.2,31.6,29.71,East,84,0.0,0.0,35,0.00,,,0.00,VWS V14.01,2013-05-02 14:02:00,
2013-05-02 10:07:00,59.5,31.9,29.71,ENE,59,0.0,0.0,35,0.00,,,0.00,VWS V14.01,2013-05-02 14:07:00,
2013-05-02 10:12:00,59.7,31.3,29.71,SE,139,0.0,2.7,34,0.00,,,0.00,VWS V14.01,2013-05-02 14:12:00,
2013-05-02 10:17:00,60.1,31.6,29.71,West,261,0.0,0.0,34,0.00,,,0.00,VWS V14.01,2013-05-02 14:17:00,
2013-05-02 10:22:00,59.9,30.0,29.71,SSE,153,2.7,2.7,32,0.00,,,0.00,VWS V14.01,2013-05-02 14:22:00,
2013-05-02 10:27:00,60.1,30.1,29.71,SE,129,0.0,0.0,32,0.00,,,0.00,VWS V14.01,2013-05-02 14:27:00,
2013-05-02 10:32:00,60.3,30.3,29.71,WSW,248,0.0,0.0,32,0.00,,,0.00,VWS V14.01,2013-05-02 14:32:00,
2013-05-02 10:37:00,60.4,30.5,29.71,SSW,210,0.0,2.2,32,0.00,,,0.00,VWS V14.01,2013-05-02 14:37:00,
2013-05-02 10:42:00,60.8,30.8,29.71,WSW,247,2.7,3.1,32,0.00,,,0.00,VWS V14.01,2013-05-02 14:42:00,
2013-05-02 10:47:00,61.0,30.2,29.71,SW,221,2.2,2.2,31,0.00,,,0.00,VWS V14.01,2013-05-02 14:47:00,
2013-05-02 10:52:00,61.5,32.2,29.71,SE,139,0.0,0.0,33,0.00,,,0.00,VWS V14.01,2013-05-02 14:52:00,
2013-05-02 10:57:00,61.5,30.6,29.71,SW,221,0.0,0.0,31,0.00,,,0.00,VWS V14.01,2013-05-02 14:57:00,
2013-05-02 11:02:00,62.1,31.1,29.71,NNW,333,2.7,2.7,31,0.00,,,0.00,VWS V14.01,2013-05-02 15:02:00,
2013-05-02 11:07:00,61.7,29.1,29.71,WSW,257,0.0,2.2,29,0.00,,,0.00,VWS V14.01,2013-05-02 15:07:00,
2013-05-02 11:12:00,61.9,30.1,29.71,West,278,0.0,2.7,30,0.00,,,0.00,VWS V14.01,2013-05-02 15:12:00,
2013-05-02 11:17:00,61.9,29.3,29.71,West,262,0.0,0.0,29,0.00,,,0.00,VWS V14.01,2013-05-02 15:17:00,
2013-05-02 11:22:00,62.2,30.5,29.71,NNE,29,0.0,0.0,30,0.00,,,0.00,VWS V14.01,2013-05-02 15:22:00,
2013-05-02 11:27:00,62.6,29.1,29.71,SW,229,0.0,0.0,28,0.00,,,0.00,VWS V14.01,2013-05-02 15:27:00,
2013-05-02 11:32:00,62.6,29.1,29.71,West,281,2.7,3.1,28,0.00,,,0.00,VWS V14.01,2013-05-02 15:32:00,
2013-05-02 11:38:00,61.9,27.6,29.71,WNW,303,0.0,0.0,27,0.00,,,0.00,VWS V14.01,2013-05-02 15:38:00,
2013-05-02 11:43:00,62.1,28.6,29.71,East,93,0.0,0.0,28,0.00,,,0.00,VWS V14.01,2013-05-02 15:43:00,
2013-05-02 11:48:00,62.4,28.9,29.71,ESE,121,2.7,2.7,28,0.00,,,0.00,VWS V14.01,2013-05-02 15:48:00,
2013-05-02 11:53:00,62.6,29.1,29.71,West,262,0.0,0.0,28,0.00,,,0.00,VWS V14.01,2013-05-02 15:53:00,
2013-05-02 11:58:00,62.1,27.7,29.71,East,91,2.2,2.7,27,0.00,,,0.00,VWS V14.01,2013-05-02 15:58:00,
2013-05-02 12:03:00,62.2,27.9,29.71,SW,219,0.0,2.7,27,0.00,,,0.00,VWS V14.01,2013-05-02 16:03:00,
2013-05-02 12:08:00,62.6,28.2,29.71,WNW,303,0.0,0.0,27,0.00,,,0.00,VWS V14.01,2013-05-02 16:08:00,
2013-05-02 12:13:00,62.2,27.0,29.71,WNW,294,0.0,2.7,26,0.00,,,0.00,VWS V14.01,2013-05-02 16:13:00,
2013-05-02 12:18:00,62.4,28.0,29.71,East,95,0.0,0.0,27,0.00,,,0.00,VWS V14.01,2013-05-02 16:18:00,
2013-05-02 12:23:00,62.2,27.0,29.71,West,269,0.0,2.7,26,0.00,,,0.00,VWS V14.01,2013-05-02 16:23:00,
2013-05-02 12:28:00,62.4,28.0,29.71,NNW,340,2.2,2.7,27,0.00,,,0.00,VWS V14.01,2013-05-02 16:28:00,
2013-05-02 12:33:00,62.4,28.0,29.68,West,279,0.0,2.7,27,0.00,,,0.00,VWS V14.01,2013-05-02 16:33:00,
2013-05-02 12:38:00,62.4,28.0,29.68,North,0,2.7,3.6,27,0.00,,,0.00,VWS V14.01,2013-05-02 16:38:00,
2013-05-02 12:43:00,62.6,26.3,29.68,West,274,3.1,3.1,25,0.00,,,0.00,VWS V14.01,2013-05-02 16:43:00,
2013-05-02 12:48:00,62.8,26.5,29.68,NW,316,0.0,0.0,25,0.00,,,0.00,VWS V14.01,2013-05-02 16:48:00,
2013-05-02 12:53:00,62.8,26.5,29.68,WSW,239,0.0,3.6,25,0.00,,,0.00,VWS V14.01,2013-05-02 16:53:00,
2013-05-02 12:58:00,63.1,27.7,29.68,South,173,0.0,0.0,26,0.00,,,0.00,VWS V14.01,2013-05-02 16:58:00,
2013-05-02 13:03:00,63.0,26.6,29.68,South,186,0.0,5.8,25,0.00,,,0.00,VWS V14.01,2013-05-02 17:03:00,
2013-05-02 13:08:00,63.3,26.9,29.68,NNE,30,0.0,0.0,25,0.00,,,0.00,VWS V14.01,2013-05-02 17:08:00,
2013-05-02 13:13:00,63.5,27.1,29.68,West,269,3.6,3.6,25,0.00,,,0.00,VWS V14.01,2013-05-02 17:13:00,
2013-05-02 13:18:00,63.9,27.4,29.68,SSE,153,0.0,0.0,25,0.00,,,0.00,VWS V14.01,2013-05-02 17:18:00,
2013-05-02 13:23:00,64.2,27.7,29.68,SE,140,2.2,2.2,25,0.00,,,0.00,VWS V14.01,2013-05-02 17:23:00,
2013-05-02 13:28:00,64.0,27.5,29.68,SSW,213,0.0,0.0,25,0.00,,,0.00,VWS V14.01,2013-05-02 17:28:00,
2013-05-02 13:33:00,64.2,26.7,29.68,West,261,0.0,2.7,24,0.00,,,0.00,VWS V14.01,2013-05-02 17:33:00,
2013-05-02 13:38:00,64.4,26.9,29.68,ESE,106,3.1,4.0,24,0.00,,,0.00,VWS V14.01,2013-05-02 17:38:00,
2013-05-02 13:43:00,64.8,27.2,29.68,West,266,2.7,2.7,24,0.00,,,0.00,VWS V14.01,2013-05-02 17:43:00,
2013-05-02 13:48:00,64.8,27.2,29.68,South,177,0.0,0.0,24,0.00,,,0.00,VWS V14.01,2013-05-02 17:48:00,
2013-05-02 13:53:00,64.9,27.3,29.68,WNW,298,0.0,2.7,24,0.00,,,0.00,VWS V14.01,2013-05-02 17:53:00,
2013-05-02 13:58:00,64.8,26.1,29.68,WSW,256,0.0,0.0,23,0.00,,,0.00,VWS V14.01,2013-05-02 17:58:00,
2013-05-02 14:03:00,64.9,26.3,29.68,ENE,73,0.0,3.1,23,0.00,,,0.00,VWS V14.01,2013-05-02 18:03:00,
2013-05-02 14:08:00,65.1,26.4,29.68,SSE,151,3.6,3.6,23,0.00,,,0.00,VWS V14.01,2013-05-02 18:08:00,
2013-05-02 14:13:00,64.9,26.3,29.68,NW,317,0.0,0.0,23,0.00,,,0.00,VWS V14.01,2013-05-02 18:13:00,
2013-05-02 14:19:00,65.5,27.8,29.68,ESE,118,3.1,3.6,24,0.00,,,0.00,VWS V14.01,2013-05-02 18:19:00,
2013-05-02 14:24:00,65.3,26.6,29.68,WSW,258,0.0,3.1,23,0.00,,,0.00,VWS V14.01,2013-05-02 18:24:00,
2013-05-02 14:29:00,65.5,26.7,29.68,ESE,104,3.6,3.6,23,0.00,,,0.00,VWS V14.01,2013-05-02 18:29:00,
2013-05-02 14:34:00,65.7,27.9,29.68,ENE,61,0.0,0.0,24,0.00,,,0.00,VWS V14.01,2013-05-02 18:34:00,
2013-05-02 14:39:00,65.7,27.9,29.68,ESE,119,3.1,3.1,24,0.00,,,0.00,VWS V14.01,2013-05-02 18:39:00,
2013-05-02 14:44:00,65.8,28.1,29.68,ESE,120,4.0,4.0,24,0.00,,,0.00,VWS V14.01,2013-05-02 18:44:00,
2013-05-02 14:49:00,65.8,28.1,29.68,ESE,110,2.2,2.7,24,0.00,,,0.00,VWS V14.01,2013-05-02 18:49:00,
2013-05-02 14:54:00,66.0,28.2,29.68,ESE,102,2.2,3.1,24,0.00,,,0.00,VWS V14.01,2013-05-02 18:54:00,
2013-05-02 14:59:00,66.2,28.4,29.68,SSW,196,0.0,3.1,24,0.00,,,0.00,VWS V14.01,2013-05-02 18:59:00,
2013-05-02 15:04:00,66.0,28.2,29.65,ESE,123,2.2,4.5,24,0.00,,,0.00,VWS V14.01,2013-05-02 19:04:00,
2013-05-02 15:09:00,66.2,27.3,29.65,ESE,123,5.4,5.4,23,0.00,,,0.00,VWS V14.01,2013-05-02 19:09:00,
2013-05-02 15:14:00,66.4,28.5,29.65,ESE,105,3.1,4.0,24,0.00,,,0.00,VWS V14.01,2013-05-02 19:14:00,
2013-05-02 15:19:00,66.4,27.5,29.65,WSW,239,2.2,2.2,23,0.00,,,0.00,VWS V14.01,2013-05-02 19:19:00,
2013-05-02 15:25:00,66.6,27.6,29.65,East,95,2.2,3.1,23,0.00,,,0.00,VWS V14.01,2013-05-02 19:25:00,
2013-05-02 15:30:00,66.7,27.8,29.65,ESE,117,0.0,2.2,23,0.00,,,0.00,VWS V14.01,2013-05-02 19:30:00,
2013-05-02 15:35:00,66.7,27.8,29.65,East,88,0.0,0.0,23,0.00,,,0.00,VWS V14.01,2013-05-02 19:35:00,
2013-05-02 15:40:00,66.9,27.9,29.65,East,87,0.0,2.2,23,0.00,,,0.00,VWS V14.01,2013-05-02 19:40:00,
2013-05-02 15:45:00,66.9,27.9,29.65,SSE,154,0.0,4.0,23,0.00,,,0.00,VWS V14.01,2013-05-02 19:45:00,
2013-05-02 15:50:00,67.1,28.1,29.65,East,92,0.0,2.2,23,0.00,,,0.00,VWS V14.01,2013-05-02 19:50:00,
2013-05-02 15:55:00,67.1,28.1,29.65,ESE,121,3.6,3.6,23,0.00,,,0.00,VWS V14.01,2013-05-02 19:55:00,
2013-05-02 16:01:00,67.1,28.1,29.65,SSW,202,3.1,3.6,23,0.00,,,0.00,VWS V14.01,2013-05-02 20:01:00,
2013-05-02 16:06:00,67.5,28.4,29.65,WSW,245,2.2,2.2,23,0.00,,,0.00,VWS V14.01,2013-05-02 20:06:00,
2013-05-02 16:11:00,67.5,28.4,29.65,WSW,252,0.0,0.0,23,0.00,,,0.00,VWS V14.01,2013-05-02 20:11:00,
2013-05-02 16:16:00,67.5,28.4,29.65,West,260,2.2,3.1,23,0.00,,,0.00,VWS V14.01,2013-05-02 20:16:00,
2013-05-02 16:21:00,67.5,28.4,29.62,SE,146,4.0,4.9,23,0.00,,,0.00,VWS V14.01,2013-05-02 20:21:00,
2013-05-02 16:26:00,67.6,28.5,29.62,East,96,0.0,0.0,23,0.00,,,0.00,VWS V14.01,2013-05-02 20:26:00,
2013-05-02 16:31:00,67.6,28.5,29.62,North,353,0.0,0.0,23,0.00,,,0.00,VWS V14.01,2013-05-02 20:31:00,
2013-05-02 16:36:00,67.8,28.7,29.62,SW,217,5.8,5.8,23,0.00,,,0.00,VWS V14.01,2013-05-02 20:36:00,
2013-05-02 16:41:00,67.8,28.7,29.62,ESE,105,0.0,0.0,23,0.00,,,0.00,VWS V14.01,2013-05-02 20:41:00,
2013-05-02 16:46:00,68.0,28.9,29.62,West,267,0.0,0.0,23,0.00,,,0.00,VWS V14.01,2013-05-02 20:46:00,
2013-05-02 16:51:00,68.2,29.0,29.62,SE,127,3.6,3.6,23,0.00,,,0.00,VWS V14.01,2013-05-02 20:51:00,
2013-05-02 16:56:00,68.2,29.0,29.62,ESE,102,3.6,3.6,23,0.00,,,0.00,VWS V14.01,2013-05-02 20:56:00,
2013-05-02 17:01:00,68.2,29.0,29.62,ESE,113,5.4,5.4,23,0.00,,,0.00,VWS V14.01,2013-05-02 21:01:00,
2013-05-02 17:06:00,68.4,29.1,29.62,ESE,118,2.2,2.2,23,0.00,,,0.00,VWS V14.01,2013-05-02 21:06:00,
2013-05-02 17:11:00,68.4,29.1,29.62,NW,319,0.0,2.2,23,0.00,,,0.00,VWS V14.01,2013-05-02 21:11:00,
2013-05-02 17:17:00,68.4,29.1,29.62,East,98,2.7,5.4,23,0.00,,,0.00,VWS V14.01,2013-05-02 21:17:00,
2013-05-02 17:22:00,68.4,29.1,29.62,ESE,108,2.2,3.1,23,0.00,,,0.00,VWS V14.01,2013-05-02 21:22:00,
2013-05-02 17:27:00,68.4,29.1,29.62,East,81,3.6,3.6,23,0.00,,,0.00,VWS V14.01,2013-05-02 21:27:00,
2013-05-02 17:32:00,68.4,28.1,29.62,WSW,244,2.2,3.1,22,0.00,,,0.00,VWS V14.01,2013-05-02 21:32:00,
2013-05-02 17:37:00,68.4,28.1,29.62,South,184,0.0,0.0,22,0.00,,,0.00,VWS V14.01,2013-05-02 21:37:00,
2013-05-02 17:42:00,68.2,27.9,29.62,East,89,0.0,2.2,22,0.00,,,0.00,VWS V14.01,2013-05-02 21:42:00,
2013-05-02 17:47:00,68.2,27.9,29.62,ESE,114,2.2,2.2,22,0.00,,,0.00,VWS V14.01,2013-05-02 21:47:00,
2013-05-02 17:52:00,68.0,27.8,29.62,ESE,113,0.0,0.0,22,0.00,,,0.00,VWS V14.01,2013-05-02 21:52:00,
2013-05-02 17:58:00,68.0,27.8,29.62,SE,131,0.0,0.0,22,0.00,,,0.00,VWS V14.01,2013-05-02 21:58:00,
2013-05-02 18:03:00,68.0,27.8,29.62,SW,221,0.0,0.0,22,0.00,,,0.00,VWS V14.01,2013-05-02 22:03:00,
2013-05-02 18:08:00,68.0,27.8,29.62,SE,141,0.0,0.0,22,0.00,,,0.00,VWS V14.01,2013-05-02 22:08:00,
2013-05-02 18:13:00,67.8,27.6,29.62,East,93,0.0,0.0,22,0.00,,,0.00,VWS V14.01,2013-05-02 22:13:00,
2013-05-02 18:18:00,68.0,27.8,29.62,ESE,122,3.1,3.1,22,0.00,,,0.00,VWS V14.01,2013-05-02 22:18:00,
2013-05-02 18:23:00,68.0,27.8,29.62,NNE,22,0.0,0.0,22,0.00,,,0.00,VWS V14.01,2013-05-02 22:23:00,
2013-05-02 18:28:00,67.8,27.6,29.62,ESE,106,0.0,2.2,22,0.00,,,0.00,VWS V14.01,2013-05-02 22:28:00,
2013-05-02 18:33:00,67.6,28.5,29.62,SE,142,2.7,4.9,23,0.00,,,0.00,VWS V14.01,2013-05-02 22:33:00,
2013-05-02 18:38:00,67.6,28.5,29.62,East,84,0.0,0.0,23,0.00,,,0.00,VWS V14.01,2013-05-02 22:38:00,
2013-05-02 18:43:00,67.6,28.5,29.62,East,91,0.0,0.0,23,0.00,,,0.00,VWS V14.01,2013-05-02 22:43:00,
2013-05-02 18:48:00,67.5,28.4,29.62,SSE,160,0.0,0.0,23,0.00,,,0.00,VWS V14.01,2013-05-02 22:48:00,
2013-05-02 18:54:00,67.1,28.1,29.62,NW,308,0.0,0.0,23,0.00,,,0.00,VWS V14.01,2013-05-02 22:54:00,
2013-05-02 18:59:00,66.9,27.9,29.62,WNW,301,0.0,0.0,23,0.00,,,0.00,VWS V14.01,2013-05-02 22:59:00,
2013-05-02 19:04:00,66.7,27.8,29.59,WNW,289,0.0,0.0,23,0.00,,,0.00,VWS V14.01,2013-05-02 23:04:00,
2013-05-02 19:09:00,66.6,27.6,29.59,WNW,289,0.0,0.0,23,0.00,,,0.00,VWS V14.01,2013-05-02 23:09:00,
2013-05-02 19:14:00,66.6,27.6,29.59,WNW,289,0.0,0.0,23,0.00,,,0.00,VWS V14.01,2013-05-02 23:14:00,
2013-05-02 19:19:00,66.6,27.6,29.59,WNW,289,0.0,0.0,23,0.00,,,0.00,VWS V14.01,2013-05-02 23:19:00,
2013-05-02 19:24:00,66.0,27.2,29.59,West,278,0.0,0.0,23,0.00,,,0.00,VWS V14.01,2013-05-02 23:24:00,
2013-05-02 19:29:00,65.5,26.7,29.59,SSE,162,0.0,0.0,23,0.00,,,0.00,VWS V14.01,2013-05-02 23:29:00,
2013-05-02 19:34:00,64.9,26.3,29.62,SSE,162,0.0,0.0,23,0.00,,,0.00,VWS V14.01,2013-05-02 23:34:00,
2013-05-02 19:39:00,64.4,25.8,29.62,SSE,162,0.0,0.0,23,0.00,,,0.00,VWS V14.01,2013-05-02 23:39:00,
2013-05-02 19:44:00,64.0,26.5,29.62,SSE,162,0.0,0.0,24,0.00,,,0.00,VWS V14.01,2013-05-02 23:44:00,
2013-05-02 19:49:00,63.7,26.2,29.62,SSE,162,0.0,0.0,24,0.00,,,0.00,VWS V14.01,2013-05-02 23:49:00,
2013-05-02 19:54:00,63.1,25.8,29.62,SSE,163,0.0,0.0,24,0.00,,,0.00,VWS V14.01,2013-05-02 23:54:00,
2013-05-02 19:59:00,62.8,25.5,29.62,SSE,165,0.0,0.0,24,0.00,,,0.00,VWS V14.01,2013-05-02 23:59:00,
2013-05-02 20:04:00,62.4,25.2,29.62,SSE,165,0.0,0.0,24,0.00,,,0.00,VWS V14.01,2013-05-03 00:04:00,
2013-05-02 20:09:00,62.1,24.9,29.62,SSE,165,0.0,0.0,24,0.00,,,0.00,VWS V14.01,2013-05-03 00:09:00,
2013-05-02 20:14:00,61.7,24.6,29.62,SE,139,0.0,0.0,24,0.00,,,0.00,VWS V14.01,2013-05-03 00:14:00,
2013-05-02 20:19:00,61.3,25.2,29.62,East,81,0.0,0.0,25,0.00,,,0.00,VWS V14.01,2013-05-03 00:19:00,
2013-05-02 20:24:00,61.2,25.1,29.62,East,82,0.0,0.0,25,0.00,,,0.00,VWS V14.01,2013-05-03 00:24:00,
2013-05-02 20:29:00,60.8,24.8,29.62,East,82,0.0,0.0,25,0.00,,,0.00,VWS V14.01,2013-05-03 00:29:00,
2013-05-02 20:34:00,60.4,24.5,29.62,East,82,0.0,0.0,25,0.00,,,0.00,VWS V14.01,2013-05-03 00:34:00,
2013-05-02 20:39:00,60.3,24.3,29.62,East,82,0.0,0.0,25,0.00,,,0.00,VWS V14.01,2013-05-03 00:39:00,
2013-05-02 20:44:00,59.9,24.0,29.62,East,82,0.0,0.0,25,0.00,,,0.00,VWS V14.01,2013-05-03 00:44:00,
2013-05-02 20:49:00,59.7,24.8,29.62,East,82,0.0,0.0,26,0.00,,,0.00,VWS V14.01,2013-05-03 00:49:00,
2013-05-02 20:54:00,59.5,24.6,29.62,East,82,0.0,0.0,26,0.00,,,0.00,VWS V14.01,2013-05-03 00:54:00,
2013-05-02 20:59:00,59.2,24.3,29.62,East,82,0.0,0.0,26,0.00,,,0.00,VWS V14.01,2013-05-03 00:59:00,
2013-05-02 21:04:00,59.0,24.2,29.62,East,82,0.0,0.0,26,0.00,,,0.00,VWS V14.01,2013-05-03 01:04:00,
2013-05-02 21:09:00,58.8,24.9,29.62,East,82,0.0,0.0,27,0.00,,,0.00,VWS V14.01,2013-05-03 01:09:00,
2013-05-02 21:14:00,58.5,24.6,29.62,East,82,0.0,0.0,27,0.00,,,0.00,VWS V14.01,2013-05-03 01:14:00,
2013-05-02 21:19:00,58.1,24.3,29.62,East,82,0.0,0.0,27,0.00,,,0.00,VWS V14.01,2013-05-03 01:19:00,
2013-05-02 21:24:00,57.9,25.0,29.62,East,82,0.0,0.0,28,0.00,,,0.00,VWS V14.01,2013-05-03 01:24:00,
2013-05-02 21:29:00,57.7,24.9,29.62,East,82,0.0,0.0,28,0.00,,,0.00,VWS V14.01,2013-05-03 01:29:00,
2013-05-02 21:34:00,57.6,24.7,29.62,East,82,0.0,0.0,28,0.00,,,0.00,VWS V14.01,2013-05-03 01:34:00,
2013-05-02 21:39:00,57.4,25.4,29.62,East,82,0.0,0.0,29,0.00,,,0.00,VWS V14.01,2013-05-03 01:39:00,
2013-05-02 21:44:00,57.2,25.2,29.62,East,82,0.0,0.0,29,0.00,,,0.00,VWS V14.01,2013-05-03 01:44:00,
2013-05-02 21:49:00,56.8,24.9,29.62,East,82,0.0,0.0,29,0.00,,,0.00,VWS V14.01,2013-05-03 01:49:00,
2013-05-02 21:54:00,56.8,25.8,29.62,East,82,0.0,0.0,30,0.00,,,0.00,VWS V14.01,2013-05-03 01:54:00,
2013-05-02 21:59:00,56.7,25.6,29.62,East,82,0.0,0.0,30,0.00,,,0.00,VWS V14.01,2013-05-03 01:59:00,
2013-05-02 22:04:00,56.7,26.4,29.62,East,82,0.0,0.0,31,0.00,,,0.00,VWS V14.01,2013-05-03 02:04:00,
2013-05-02 22:09:00,56.5,26.2,29.62,East,82,0.0,0.0,31,0.00,,,0.00,VWS V14.01,2013-05-03 02:09:00,
2013-05-02 22:15:00,56.1,25.9,29.62,East,82,0.0,0.0,31,0.00,,,0.00,VWS V14.01,2013-05-03 02:15:00,
2013-05-02 22:20:00,55.9,26.5,29.62,East,82,0.0,0.0,32,0.00,,,0.00,VWS V14.01,2013-05-03 02:20:00,
2013-05-02 22:25:00,55.8,26.4,29.62,East,82,0.0,0.0,32,0.00,,,0.00,VWS V14.01,2013-05-03 02:25:00,
2013-05-02 22:30:00,55.4,26.8,29.62,East,82,0.0,0.0,33,0.00,,,0.00,VWS V14.01,2013-05-03 02:30:00,
2013-05-02 22:35:00,55.2,27.4,29.62,East,82,0.0,0.0,34,0.00,,,0.00,VWS V14.01,2013-05-03 02:35:00,
2013-05-02 22:40:00,54.7,26.9,29.62,East,82,0.0,0.0,34,0.00,,,0.00,VWS V14.01,2013-05-03 02:40:00,
2013-05-02 22:45:00,54.5,27.4,29.62,East,82,0.0,0.0,35,0.00,,,0.00,VWS V14.01,2013-05-03 02:45:00,
2013-05-02 22:50:00,54.5,27.4,29.62,East,82,0.0,0.0,35,0.00,,,0.00,VWS V14.01,2013-05-03 02:50:00,
2013-05-02 22:55:00,54.5,27.4,29.62,East,82,0.0,0.0,35,0.00,,,0.00,VWS V14.01,2013-05-03 02:55:00,
2013-05-02 23:00:00,54.3,27.3,29.62,East,82,0.0,0.0,35,0.00,,,0.00,VWS V14.01,2013-05-03 03:00:00,
2013-05-02 23:05:00,53.8,27.5,29.62,East,82,0.0,0.0,36,0.00,,,0.00,VWS V14.01,2013-05-03 03:05:00,
2013-05-02 23:10:00,53.2,27.0,29.62,East,82,0.0,0.0,36,0.00,,,0.00,VWS V14.01,2013-05-03 03:10:00,
2013-05-02 23:15:00,53.1,26.8,29.62,NE,36,0.0,0.0,36,0.00,,,0.00,VWS V14.01,2013-05-03 03:15:00,
2013-05-02 23:20:00,52.7,27.2,29.62,NE,36,0.0,0.0,37,0.00,,,0.00,VWS V14.01,2013-05-03 03:20:00,
2013-05-02 23:25:00,52.5,27.0,29.62,NE,36,0.0,0.0,37,0.00,,,0.00,VWS V14.01,2013-05-03 03:25:00,
2013-05-02 23:30:00,52.3,26.9,29.62,NE,36,0.0,0.0,37,0.00,,,0.00,VWS V14.01,2013-05-03 03:30:00,
2013-05-02 23:36:00,52.2,26.7,29.62,NE,36,0.0,0.0,37,0.00,,,0.00,VWS V14.01,2013-05-03 03:36:00,
2013-05-02 23:41:00,52.0,27.2,29.62,NE,36,0.0,0.0,38,0.00,,,0.00,VWS V14.01,2013-05-03 03:41:00,
2013-05-02 23:46:00,52.0,27.2,29.62,NE,36,0.0,0.0,38,0.00,,,0.00,VWS V14.01,2013-05-03 03:46:00,
2013-05-02 23:51:00,51.8,27.0,29.62,NE,36,0.0,0.0,38,0.00,,,0.00,VWS V14.01,2013-05-03 03:51:00,
2013-05-02 23:56:00,51.8,27.0,29.62,NE,36,0.0,0.0,38,0.00,,,0.00,VWS V14.01,2013-05-03 03:56:00,